Location: ???????
(54.9996°N, 37.9529°E)
Time: 09:27:37
(UTC+00:00)

OBJECT AY - Visible Passes

Search period start: 06 October 2024 00:00
Search period end: 16 October 2024 00:00
Orbit: 489 x 509 km, 97.6° (Epoch: 05 October)

Date Brightness Start Highest point End Pass type
(mag) Time Alt. Az. Time Alt. Az. Time Alt. Az.
06 Oct ? 16:29:57 14° NE 16:29:57 14° NE 16:31:24 10° NNE visible
06 Oct ? 18:04:36 26° NNW 18:04:36 26° NNW 18:06:20 10° NNW visible
07 Oct ? 17:44:27 26° N 17:44:27 26° N 17:46:12 10° N visible
08 Oct ? 17:24:09 23° NNE 17:24:09 23° NNE 17:25:49 10° N visible
08 Oct ? 18:58:48 13° NW 18:58:48 13° NW 18:59:17 10° NW visible
09 Oct ? 17:03:43 19° NNE 17:03:43 19° NNE 17:05:12 10° N visible
09 Oct ? 18:38:21 15° NW 18:38:21 15° NW 18:39:10 10° NNW visible
10 Oct ? 16:43:08 15° NNE 16:43:08 15° NNE 16:44:17 10° NNE visible
10 Oct ? 18:17:45 18° NNW 18:17:45 18° NNW 18:18:47 10° NNW visible
11 Oct ? 16:22:24 11° NE 16:22:24 11° NE 16:22:51 10° NNE visible
11 Oct ? 17:57:01 19° NNW 17:57:01 19° NNW 17:58:08 10° NNW visible
12 Oct ? 17:36:09 18° N 17:36:09 18° N 17:37:15 10° N visible
13 Oct ? 17:15:08 16° NNE 17:15:08 16° NNE 17:16:07 10° N visible
13 Oct ? 18:49:44 10° NNW 18:49:44 10° NNW 18:49:48 10° NNW visible
14 Oct ? 16:53:58 14° NNE 16:53:58 14° NNE 16:54:43 10° NNE visible
14 Oct ? 18:28:33 12° NNW 18:28:33 12° NNW 18:28:55 10° NNW visible
15 Oct ? 16:32:41 11° NNE 16:32:41 11° NNE 16:32:56 10° NNE visible
15 Oct ? 18:07:15 13° NNW 18:07:15 13° NNW 18:07:45 10° NNW visible
